Weather in Kikerino

Russia / Saint-Petersburg and Leningrad Oblast     59°27′43″N   29°37′50″E
В апреле 2022 года жителям России запретили посещать сайт meteo.paraplan.net по решению Генеральной прокуратуры. Аудитория сайта уменьшилась в 10 раз. Владельцы сайта не видят смысла в поддержке погодного сервера в таких условиях. Сайт будет закрыт в октябре.
temp.,
°C
wind,
m/s
gust,
m/s
humid.,
%
clouds,
%
prec.,
mm/h
press.,
hPa
HPBL,
m
25 september, sun
sun2500:00+6nnw51281100 0.0 1010508
03:00+6nnw51285100 0.0 1010564
06:00+6nnw51191100 0.0 1009569
09:00+6nnw41092100 0.3 1008602
12:00+6nnw4897100 1.6 1008620
15:00+7n3696100 3.6 1008434
18:00+6nnw2697100 1.1 1008332
21:00+6n2597100 1.2 1008290
26 september, mon
mon2600:00+6nnw1198100 0.0 100887
03:00+7sw0098100 0.0 100844
06:00+7wsw1198100 0.0 100838
09:00+7ssw119491 0.0 1008213
12:00+9ssw1280100 0.0 1009678
15:00+11s126753 0.1 1009988
18:00+9s117457 0.1 100911
21:00+7s018249 0.1 101010
27 september, tue
tue2700:00+5sw009145 0.0 101010
03:00+5n009397 0.0 101010
06:00+5ene1193100 0.0 101010
09:00+7ese1283100 0.0 1011136
12:00+11se236699 0.1 1011657
15:00+11ese336195 0.2 10111075
18:00+9e367743 0.1 1012318
21:00+6e39965 0.1 1013210
28 september, wed
wed2800:00+5e279792 0.0 1012165
03:00+7e31095100 0.1 1012429
06:00+6e412965 0.1 1012394
09:00+7e51486100 0.1 1011483
12:00+10e61371100 0.0 1010902
15:00+11e71367100 0.0 10091160
18:00+10e71473100 0.0 10091212
21:00+7e71580100 0.0 10091010
29 september, thu
thu2900:00+7e71478100 0.1 10091113
03:00+6e61391100 1.0 1009888
06:00+5ese61394100 1.7 1009798
09:00+5ese51295100 2.9 1009812
12:00+5ese51295100 1.5 1010709
15:00+6ese41096100 2.6 1011560
18:00+6se41097100 0.0 1012475
21:00+6se51196100 0.0 1014443